DW8847 Weather Reports


time (UTC)temp
C
wind
direction
speed
KPH
gust
KPH
rain 1hr
cm
rain 24hr
cm
rain mn
cm
humidity
%
barometer
mb
20260906080016 27 55 4.8 11.3 0.00 0.00 0.00 55 1021.5
20260906074506 26 61 8.0 17.7 0.00 0.00 0.00 57 1021.5
20260906073006 26 35 8.0 17.7 0.00 0.00 0.00 58 1021.3
20260906071559 26 61 4.8 12.9 0.00 0.00 0.00 61 1021.4
20260906070055 25 72 8.0 14.5 0.00 0.00 0.00 63 1021.3
20260906064550 24 17 3.2 8.0 0.00 0.00 0.00 70 1021.1
20260906063047 23 16 3.2 6.4 0.00 0.00 0.00 73 1021.1
20260906061547 22 60 0.0 6.4 0.00 0.00 0.00 76 1021.1
20260906060042 22 22 4.8 8.0 0.00 0.00 0.00 77 1020.8
20260906054537 21 24 4.8 8.0 0.00 0.00 0.00 80 1020.7
20260906053030 20 36 1.6 4.8 0.00 0.00 0.00 83 1020.6
20260906051527 20 36 1.6 4.8 0.00 0.00 0.00 84 1020.5
20260906050025 20 36 1.6 4.8 0.00 0.00 0.00 84 1020.3
20260906044521 19 36 1.6 6.4 0.00 0.00 0.00 85 1020.0
20260906043029 19 40 1.6 4.8 0.00 0.00 0.00 85 1020.0
20260906041520 19 40 0.0 3.2 0.00 0.00 0.00 86 1019.9
20260906040018 19 40 0.0 3.2 0.00 0.00 0.00 86 1019.8
20260906034529 19 40 0.0 3.2 0.00 0.00 0.00 86 1019.8
20260906033015 19 40 0.0 3.2 0.00 0.00 0.00 86 1019.7
20260906031520 20 40 0.0 3.2 0.00 0.00 0.00 85 1019.5
20260906030011 20 40 0.0 3.2 0.00 0.00 0.00 85 1019.4
20260906024511 20 40 1.6 3.2 0.00 0.00 0.00 85 1019.2
20260906023012 20 40 0.0 3.2 0.00 0.00 0.00 85 1019.3
20260906021510 20 40 0.0 3.2 0.00 0.00 0.00 85 1019.2
20260906020008 20 40 0.0 3.2 0.00 0.00 0.00 85 1019.2
20260906014507 20 40 0.0 4.8 0.00 0.00 0.00 85 1019.1
20260906013007 20 40 0.0 3.2 0.00 0.00 0.00 85 1019.1
20260906011505 20 40 0.0 3.2 0.00 0.00 0.00 84 1019.0
20260906010004 20 40 0.0 3.2 0.00 0.00 0.00 84 1018.9
20260906004503 20 40 0.0 3.2 0.00 0.00 0.00 84 1018.9
20260906003003 20 40 1.6 4.8 0.00 0.00 0.00 83 1018.9
20260906001502 20 40 0.0 3.2 0.00 0.00 0.00 82 1018.9
20260906000001 20 40 0.0 0.0 0.00 0.00 0.00 83 1018.9
20260905234601 20 40 0.0 3.2 0.00 0.00 0.00 83 1018.8
20260905233059 20 40 0.0 3.2 0.00 0.00 0.00 83 1018.7
20260905231607 20 40 0.0 3.2 0.00 0.00 0.00 85 1018.7
20260905230058 20 40 0.0 3.2 0.00 0.00 0.00 86 1018.8
20260905224555 20 40 0.0 3.2 0.00 0.00 0.00 85 1018.6
20260905223056 20 40 0.0 3.2 0.00 0.00 0.00 84 1018.5
20260905221549 21 40 0.0 3.2 0.00 0.00 0.00 83 1018.3
20260905220046 21 40 0.0 3.2 0.00 0.00 0.00 82 1018.2
20260905214548 22 40 0.0 3.2 0.00 0.00 0.00 80 1018.1
20260905213043 23 40 0.0 3.2 0.00 0.00 0.00 76 1018.0
20260905211546 23 40 0.0 4.8 0.00 0.00 0.00 77 1018.1
20260905210056 22 42 0.0 0.0 0.00 0.00 0.00 86 1017.9
20260905204541 22 42 0.0 1.6 0.00 0.00 0.00 88 1017.9
20260905203041 22 42 1.6 3.2 0.00 0.00 0.00 88 1018.0
20260905201540 22 42 0.0 0.0 0.00 0.00 0.00 87 1017.9
20260905200105 23 42 0.0 3.2 0.00 0.00 0.00 85 1017.6
20260905194535 23 42 0.0 0.0 0.00 0.00 0.00 85 1017.4
20260905193039 23 42 0.0 0.0 0.00 0.00 0.00 83 1017.2
20260905191535 24 42 0.0 6.4 0.00 0.00 0.00 82 1017.2
20260905190032 24 70 0.0 3.2 0.00 0.00 0.00 79 1017.0
20260905184535 25 70 0.0 0.0 0.00 0.00 0.00 75 1016.6
20260905183037 26 70 0.0 3.2 0.00 0.00 0.00 73 1016.4
20260905181524 25 70 0.0 0.0 0.00 0.00 0.00 71 1016.1
20260905180024 26 70 0.0 1.6 0.00 0.00 0.00 70 1015.9
20260905174525 27 70 0.0 0.0 0.00 0.00 0.00 66 1015.6
20260905173038 28 70 0.0 0.0 0.00 0.00 0.00 63 1015.4
20260905171523 29 70 0.0 0.0 0.00 0.00 0.00 62 1015.3
20260905170023 30 70 0.0 0.0 0.00 0.00 0.00 58 1015.1
20260905164522 30 70 0.0 0.0 0.00 0.00 0.00 55 1015.1
20260905163022 30 70 0.0 1.6 0.00 0.00 0.00 52 1014.9
20260905161521 31 70 0.0 3.2 0.00 0.00 0.00 49 1014.8
20260905160020 31 70 0.0 3.2 0.00 0.00 0.00 47 1014.8
20260905154520 31 70 0.0 1.6 0.00 0.00 0.00 47 1014.8
20260905153027 31 70 0.0 3.2 0.00 0.00 0.00 47 1014.6
20260905151520 31 70 0.0 3.2 0.00 0.00 0.00 46 1014.6
20260905150024 31 49 0.0 4.8 0.00 0.00 0.00 47 1014.6
20260905144519 31 49 0.0 3.2 0.00 0.00 0.00 44 1014.6
20260905143025 31 56 1.6 6.4 0.00 0.00 0.00 44 1014.6
20260905141518 31 30 0.0 4.8 0.00 0.00 0.00 47 1014.6
20260905140018 31 49 0.0 3.2 0.00 0.00 0.00 44 1014.8
20260905134526 31 61 0.0 4.8 0.00 0.00 0.00 44 1014.7
20260905133016 31 43 0.0 6.4 0.00 0.00 0.00 44 1014.8
20260905131515 31 96 1.6 4.8 0.00 0.00 0.00 42 1014.9
20260905130014 32 96 0.0 3.2 0.00 0.00 0.00 43 1015.0
20260905124520 31 51 1.6 8.0 0.00 0.00 0.00 46 1015.1
20260905123036 31 57 1.6 12.9 0.00 0.00 0.00 45 1015.3
20260905121515 31 42 0.0 6.4 0.00 0.00 0.00 48 1015.2
20260905120009 31 80 0.0 3.2 0.00 0.00 0.00 47 1015.4
20260905114508 31 60 0.0 3.2 0.00 0.00 0.00 47 1015.4
20260905113006 30 60 0.0 3.2 0.00 0.00 0.00 51 1015.5
20260905111506 30 60 0.0 6.4 0.00 0.00 0.00 51 1015.6
20260905110006 31 61 0.0 4.8 0.00 0.00 0.00 53 1015.6
20260905104502 30 38 0.0 8.0 0.00 0.00 0.00 53 1015.7
20260905103105 29 68 0.0 6.4 0.00 0.00 0.00 57 1015.7
20260905101559 29 90 1.6 4.8 0.00 0.00 0.00 59 1015.9
20260905100106 28 22 0.0 4.8 0.00 0.00 0.00 63 1015.9
20260905094555 27 63 0.0 4.8 0.00 0.00 0.00 65 1015.8
20260905093054 27 53 0.0 4.8 0.00 0.00 0.00 65 1015.8
20260905091555 27 63 0.0 4.8 0.00 0.00 0.00 64 1015.8
20260905090053 27 68 0.0 3.2 0.00 0.00 0.00 66 1015.7
20260905084604 27 59 1.6 4.8 0.00 0.00 0.00 67 1015.6
20260905083050 26 21 1.6 4.8 0.00 0.00 0.00 67 1015.6
20260905081548 27 22 0.0 6.4 0.00 0.00 0.00 67 1015.5